Mt. Pocono, PA

2:21 PM EST on December 15, 2019 (GMT -0500)
Pocono Mountains Municipal

Weather History for KMPO - September, 2019

Change the Weather History Date:

Sunday, September 8, 2019

  Actual Average Record
Temperature  
Mean Temperature 60 °F 62 °F  
Max Temperature 70 °F 71 °F 88 °F (2015)
Min Temperature 50 °F 53 °F 29 °F (1917)
Degree Days  
Heating Degree Days 5 4  
Month to date heating degree days 29 27  
Since 1 July heating degree days 70 90  
Cooling Degree Days 0 1  
Month to date cooling degree days 7 8  
Year to date cooling degree days 325 304  
Growing Degree Days 10 (Base 50)    
Moisture  
Dew Point 53 °F    
Average Humidity 80    
Maximum Humidity 100    
Minimum Humidity 57    
Precipitation  
Precipitation 0.00 in 0.15 in 4.06 in (1934)
Month to date precipitation 0.72 1.20  
Year to date precipitation 35.65 32.18  
Sea Level Pressure  
Sea Level Pressure 30.07 in    
Wind  
Wind Speed 6 mph ()    
Max Wind Speed 16 mph    
Max Gust Speed 20 mph    
Visibility 10.0 miles    
Events      
T = Trace of Precipitation, MM = Missing Value Source: Averaged Metar Reports

Daily Weather History Graph

Daily Weather History Graph

Search for Another Location

Airport or City:

Astronomy

Sep. 08, 2019 Rise Set
Actual Time 6:34 AM EDT 7:22 PM EDT
Civil Twilight 6:06 AM EDT 7:50 PM EDT
Nautical Twilight 5:33 AM EDT 8:23 PM EDT
Astronomical Twilight 4:59 AM EDT 8:58 PM EDT
Moon 4:32 PM EDT (9/8) 1:09 AM EDT (9/8)
Length of Visible Light 13h 44m
Length of Day
12h 48m
Waxing Gibbous, 75% of the Moon is Illuminated
Sep 8
Waxing Gibbous
Sep 14
Full
Sep 21
Last Quarter
Sep 28
New
Oct 5
First Quarter

Hourly Weather History & Observations

Time (EDT) Temp. Dew Point Humidity Pressure Visibility Wind Dir Wind Speed Gust Speed Precip Events Conditions
12:53 AM 51.1 °F 50.0 °F 96% 29.98 in 10.0 mi WSW 4.6 mph - N/A   Clear
1:53 AM 50.0 °F 50.0 °F 100% 29.99 in 10.0 mi WSW 3.5 mph - N/A   Clear
2:53 AM 51.1 °F 51.1 °F 100% 29.99 in 10.0 mi West 5.8 mph - N/A   Overcast
3:22 AM 51.1 °F 51.1 °F 100% 29.99 in 10.0 mi West 3.5 mph - N/A   Scattered Clouds
3:53 AM 51.1 °F 51.1 °F 100% 29.99 in 10.0 mi WSW 4.6 mph - N/A   Clear
4:53 AM 51.1 °F 51.1 °F 100% 30.00 in 10.0 mi West 5.8 mph - N/A   Clear
5:53 AM 52.0 °F 52.0 °F 100% 30.01 in 10.0 mi WSW 6.9 mph - N/A   Clear
6:53 AM 53.1 °F 53.1 °F 100% 30.04 in 10.0 mi West 8.1 mph - N/A   Partly Cloudy
7:53 AM 54.0 °F 54.0 °F 100% 30.06 in 10.0 mi West 6.9 mph - N/A   Partly Cloudy
8:53 AM 57.9 °F 53.1 °F 84% 30.07 in 10.0 mi WNW 8.1 mph - N/A   Clear
9:53 AM 60.1 °F 53.1 °F 78% 30.08 in 10.0 mi WNW 10.4 mph - N/A   Clear
10:53 AM 62.1 °F 55.0 °F 78% 30.09 in 10.0 mi WNW 10.4 mph - N/A   Partly Cloudy
11:53 AM 66.0 °F 55.0 °F 68% 30.08 in 10.0 mi WNW 9.2 mph - N/A   Clear
12:53 PM 68.0 °F 55.0 °F 63% 30.09 in 10.0 mi NW 12.7 mph - N/A   Overcast
1:53 PM 69.1 °F 54.0 °F 58% 30.08 in 10.0 mi NW 10.4 mph - N/A   Overcast
2:53 PM 68.0 °F 55.0 °F 63% 30.09 in 10.0 mi WNW 8.1 mph - N/A   Partly Cloudy
3:53 PM 69.1 °F 55.0 °F 61% 30.08 in 10.0 mi West 8.1 mph - N/A   Partly Cloudy
4:53 PM 69.1 °F 55.0 °F 61% 30.09 in 10.0 mi NW 5.8 mph - N/A   Partly Cloudy
5:53 PM 69.1 °F 54.0 °F 58% 30.10 in 10.0 mi NW 8.1 mph - N/A   Mostly Cloudy
6:53 PM 64.9 °F 55.0 °F 70% 30.12 in 10.0 mi North 6.9 mph - N/A   Scattered Clouds
7:53 PM 63.0 °F 54.0 °F 72% 30.14 in 10.0 mi North 4.6 mph - N/A   Clear
8:53 PM 57.9 °F 54.0 °F 87% 30.16 in 10.0 mi Calm Calm - N/A   Clear
9:53 PM 60.1 °F 52.0 °F 75% 30.17 in 10.0 mi NE 3.5 mph - N/A   Partly Cloudy
10:53 PM 60.1 °F 50.0 °F 69% 30.19 in 10.0 mi NNE 6.9 mph - N/A   Partly Cloudy
11:53 PM 60.1 °F 50.0 °F 69% 30.18 in 10.0 mi Variable 3.5 mph - N/A   Overcast